Location: Christian Reformed Church
(43.0975°N, 93.8113°W)
Time: 23:09:28
(UTC+00:00)

Cosmos 2058 Rocket - Pass Details

Date: 13 December 2025
Orbit: 603 x 633 km, 82.5° (Epoch: 14 January)

Event Time Altitude Azimuth Distance (km) Brightness Sun altitude
Exits shadow 12:17:41 22° 302° (WNW) 1,358 4.2 -14.2°
Maximum altitude 12:19:08 27° 271° (W) 1,203 4.0 -13.9°
Drops below altitude 10° 12:22:47 10° 214° (SW) 1,967 5.5 -13.3°
Sets 12:25:14 0° 202° (SSW) 2,861 6.5 -12.9°
